Location: St. Andrews
(45.0670°N, 67.0330°W)
Time: 23:49:44
(UTC-04:00)

Amateur Radio Satellites - All Passes

Search period start: 23 November 2014 23:19
Search period end: 24 November 2014 23:19
Location: St. Andrews, 45.0670°N, 67.0330°W

Satellite Date Start Highest point End Downlink Frequencies (MHz)
Time Altitude Azimuth
TISAT 1 23 Nov 23:20:41 23:24:48 49° 72° (ENE) 23:28:56 437.305
UNISAT 6 23 Nov 23:22:14 23:26:40 89° 284° (WNW) 23:31:11 437.425
SPROUT 23 Nov 23:22:33 23:26:40 44° 71° (ENE) 23:30:47 437.525
CUBEBUG 1 23 Nov 23:24:21 23:28:34 42° 262° (W) 23:32:48 437.445
FUNcube-1 23 Nov 23:24:36 23:25:36 11° 271° (W) 23:26:36 145.935
BEESAT 3 23 Nov 23:27:45 23:29:39 13° 328° (NNW) 23:31:35 437.485
NANOSAT C BR1 23 Nov 23:30:49 23:35:04 80° 103° (ESE) 23:39:17 145.865
AUBIESAT-1 23 Nov 23:35:26 23:38:48 25° 59° (ENE) 23:42:25 437.475
M-CUBED/EXP-1 PRIME 23 Nov 23:38:39 23:42:10 29° 60° (ENE) 23:45:59 437.505
RS-15 23 Nov 23:39:20 23:49:32 39° 31° (NNE) 00:00:02 29.354- 29.394
QB50P1 23 Nov 23:40:23 23:44:37 81° 285° (WNW) 23:48:50 145.935-145.965
BEESAT 2 23 Nov 23:41:45 23:43:10 11° 330° (NNW) 23:44:35 435.950
BEESAT 23 Nov 23:41:58 23:44:56 17° 60° (ENE) 23:47:54 436.000
ANTELSAT 23 Nov 23:50:53 23:55:06 46° 289° (WNW) 23:59:24 437.575/2403.000
CUSAT 1 24 Nov 00:00:42 00:04:48 48° 78° (ENE) 00:10:16 437.405
AIST 2 24 Nov 00:04:19 00:06:19 13° 329° (NNW) 00:08:21 435.215
BUGSAT 1 24 Nov 00:04:30 00:08:31 52° 288° (WNW) 00:12:27 437.445
ESTCUBE 1 24 Nov 00:04:52 00:07:53 17° 269° (W) 00:10:56 437.505/2401.250
POPSAT HIP 1 24 Nov 00:05:01 00:09:03 44° 289° (WNW) 00:13:03 437.405
DANDE 24 Nov 00:15:30 00:19:30 55° 78° (ENE) 00:24:53 436.750
ITUPSAT 1 24 Nov 00:34:04 00:38:39 46° 70° (ENE) 00:43:17 437.325
POLYITAN 1 24 Nov 00:37:39 00:40:53 22° 295° (WNW) 00:44:06 437.675
ISS 24 Nov 00:37:39 00:40:41 35° 141° (SE) 00:43:43 145.825
MaSat-1 24 Nov 00:39:20 00:41:08 19° 55° (NE) 00:42:56 437.345
QB50P2 24 Nov 00:40:47 00:43:55 20° 296° (WNW) 00:47:01 145.880/145.840
SWISSCUBE 24 Nov 00:45:49 00:50:34 66° 73° (ENE) 00:55:22 437.505
TIGRISAT 24 Nov 00:48:20 00:50:42 14° 299° (WNW) 00:53:04 435.000
DUCHIFAT 1 24 Nov 00:48:45 00:51:33 18° 297° (WNW) 00:54:20 145.980
KKS-1 24 Nov 00:49:00 00:51:36 15° 61° (ENE) 00:54:11 437.445
TISAT 1 24 Nov 00:58:12 01:00:56 16° 268° (W) 01:03:40 437.305
SPROUT 24 Nov 00:59:57 01:02:59 19° 268° (W) 01:06:01 437.525
UNISAT 6 24 Nov 01:01:36 01:02:49 11° 301° (WNW) 01:04:02 437.425
NANOSAT C BR1 24 Nov 01:08:53 01:10:21 12° 301° (WNW) 01:11:48 145.865
AUBIESAT-1 24 Nov 01:09:57 01:13:38 35° 259° (W) 01:17:39 437.475
M-CUBED/EXP-1 PRIME 24 Nov 01:13:40 01:17:11 29° 260° (W) 01:21:01 437.505
BEESAT 24 Nov 01:17:28 01:22:14 68° 258° (WSW) 01:27:03 436.000
CUSAT 1 24 Nov 01:44:42 01:47:53 19° 267° (W) 01:51:41 437.405
STARS 24 Nov 01:48:08 01:52:13 38° 69° (ENE) 01:56:18 437.465
YUBILEINY 24 Nov 01:50:16 01:57:12 27° 80° (E) 02:04:07 435.215
RS-15 24 Nov 01:52:02 02:03:16 85° 237° (WSW) 02:15:00 29.354- 29.394
Oscar 19 24 Nov 01:59:36 02:04:45 65° 102° (ESE) 02:09:53 437.125/150
DANDE 24 Nov 02:00:20 02:02:55 15° 267° (W) 02:05:55 436.750
ITUPSAT 1 24 Nov 02:13:06 02:16:46 22° 267° (W) 02:20:29 437.325
ISS 24 Nov 02:14:08 02:17:17 43° 339° (NNW) 02:20:28 145.825
MaSat-1 24 Nov 02:14:54 02:15:33 11° 252° (WSW) 02:16:11 437.345
KKS-1 24 Nov 02:23:19 02:27:45 64° 258° (WSW) 02:32:11 437.445
SWISSCUBE 24 Nov 02:26:07 02:28:54 15° 270° (W) 02:31:42 437.505
ITAMSAT 1 24 Nov 02:47:20 02:52:31 70° 103° (ESE) 02:57:40 435.822/435.867
Gurwin Techsat 1B 24 Nov 03:05:34 03:10:51 61° 101° (E) 03:16:05 435.225
MOZHAYETS 4 24 Nov 03:13:11 03:15:39 15° 60° (ENE) 03:18:08
STARS 24 Nov 03:25:23 03:28:50 22° 266° (W) 03:32:17 437.465
HORYU 2 24 Nov 03:28:32 03:32:52 45° 99° (E) 03:37:10 437.375
AO-7 24 Nov 03:33:35 03:40:05 24° 92° (E) 03:46:32 29.400- 29.500
Oscar 19 24 Nov 03:40:03 03:43:35 19° 300° (WNW) 03:47:08 437.125/150
YUBILEINY 24 Nov 03:44:24 03:53:11 71° 281° (W) 04:01:59 435.215
ISS 24 Nov 03:51:41 03:54:29 25° 359° (N) 03:57:17 145.825
JAS-2 24 Nov 04:00:25 04:02:23 11° 79° (E) 04:04:18 435.910
RS-15 24 Nov 04:05:57 04:14:04 24° 259° (W) 04:22:27 29.354- 29.394
SO-50 24 Nov 04:27:00 04:31:18 46° 119° (ESE) 04:35:46 436.795
BEESAT 3 24 Nov 04:27:06 04:30:25 22° 40° (NE) 04:33:42 437.485
ITAMSAT 1 24 Nov 04:28:02 04:31:28 18° 301° (WNW) 04:34:53 435.822/435.867
PCSat 24 Nov 04:28:40 04:33:36 34° 47° (NE) 04:38:29 145.827
BEESAT 2 24 Nov 04:40:30 04:44:03 25° 42° (NE) 04:47:35 435.950
Gurwin Techsat 1B 24 Nov 04:46:28 04:50:22 21° 299° (WNW) 04:54:14 435.225
MOZHAYETS 4 24 Nov 04:47:43 04:52:18 73° 258° (WSW) 04:56:56
CUBESAT XI-V 24 Nov 04:49:07 04:50:37 11° 57° (ENE) 04:52:07 437.345
AIST 2 24 Nov 05:04:46 05:08:20 24° 41° (NE) 05:11:51 435.215
HORYU 2 24 Nov 05:05:54 05:09:15 21° 296° (WNW) 05:12:36 437.375
PRISM 24 Nov 05:13:15 05:17:14 44° 70° (ENE) 05:21:17 437.425
AO-7 24 Nov 05:25:19 05:33:42 80° 291° (WNW) 05:42:03 29.400- 29.500
ISS 24 Nov 05:28:33 05:31:42 40° 19° (NNE) 05:34:51 145.825
JAS-2 24 Nov 05:41:45 05:49:03 67° 101° (E) 05:55:27 435.910
YUBILEINY 24 Nov 05:46:37 05:51:50 17° 305° (NW) 05:57:04 435.215
O/OREOS (USA 219) 24 Nov 05:49:30 05:52:38 19° 101° (E) 05:55:46 437.305
CUTE-I 24 Nov 05:51:21 05:55:21 21° 92° (E) 05:59:20 437.470
STRAND 1 24 Nov 05:59:39 06:04:38 53° 70° (ENE) 06:09:39 437.568
BEESAT 3 24 Nov 06:04:50 06:08:57 54° 240° (WSW) 06:13:00 437.485
SO-50 24 Nov 06:08:06 06:12:03 28° 319° (NW) 06:16:08 436.795
PCSat 24 Nov 06:12:00 06:17:08 44° 246° (WSW) 06:22:13 145.827
BEESAT 2 24 Nov 06:18:31 06:22:32 44° 241° (WSW) 06:26:30 435.950
CUBESAT XI-V 24 Nov 06:22:34 06:27:17 83° 76° (ENE) 06:32:03 437.345
AIST 2 24 Nov 06:43:02 06:47:13 50° 240° (WSW) 06:51:20 435.215
Cubesat XI-IV 24 Nov 06:48:23 06:53:43 68° 102° (ESE) 06:59:00 437.490
PRISM 24 Nov 06:50:08 06:53:01 18° 268° (W) 06:55:56 437.425
AIST 1 24 Nov 06:56:24 07:00:39 46° 77° (ENE) 07:04:50
ISS 24 Nov 07:05:14 07:08:22 40° 218° (SW) 07:11:29 145.825
AO-7 24 Nov 07:19:25 07:25:16 22° 313° (NW) 07:31:08 29.400- 29.500
O/OREOS (USA 219) 24 Nov 07:27:20 07:31:40 47° 299° (WNW) 07:36:01 437.305
JAS-2 24 Nov 07:27:29 07:33:25 28° 302° (WNW) 07:38:51 435.910
CUTE-I 24 Nov 07:30:34 07:35:46 55° 290° (WNW) 07:40:55 437.470
GONETS M04 24 Nov 07:39:37 07:46:51 30° 81° (E) 07:54:07
STRAND 1 24 Nov 07:40:16 07:44:08 21° 268° (W) 07:48:01 437.568
CUBESAT XI-V 24 Nov 08:03:49 08:05:21 11° 273° (W) 08:06:53 437.345
HO-68 24 Nov 08:12:29 08:17:36 20° 90° (E) 08:22:40 435.675
SEEDS 24 Nov 08:17:41 08:18:18 10° 88° (E) 08:18:56 437.485
BRITE-PL 24 Nov 08:22:44 08:24:31 12° 89° (E) 08:26:18 437.365/2234.400
Cubesat XI-IV 24 Nov 08:29:36 08:33:16 19° 301° (WNW) 08:36:56 437.490
AIST 1 24 Nov 08:35:06 08:37:55 17° 275° (W) 08:40:43
AAUSAT CUBESAT 2 24 Nov 08:37:34 08:39:35 13° 89° (E) 08:41:36 437.432
CANX-2 24 Nov 08:40:17 08:43:45 23° 94° (E) 08:47:13 2200.000
UNISAT 6 24 Nov 08:50:09 08:51:42 12° 59° (ENE) 08:53:14 437.425
COMPASS 1 24 Nov 08:50:25 08:53:37 20° 93° (E) 08:56:48 437.405
QB50P1 24 Nov 09:02:53 09:04:14 11° 59° (ENE) 09:05:34 145.935-145.965
DOVE 4 24 Nov 09:09:07 09:12:23 22° 94° (E) 09:15:40 437.250
CUTE 1.7 & AOD 2 24 Nov 09:14:45 09:18:55 49° 99° (E) 09:23:05 437.475
ANTELSAT 24 Nov 09:16:41 09:19:55 21° 65° (ENE) 09:23:10 437.575/2403.000
BUGSAT 1 24 Nov 09:23:07 09:25:37 15° 62° (ENE) 09:28:07 437.445
POPSAT HIP 1 24 Nov 09:25:30 09:28:30 19° 64° (ENE) 09:31:30 437.405
UKube-1 24 Nov 09:32:20 09:35:46 22° 94° (E) 09:39:10 .
FUNcube-1 24 Nov 09:33:21 09:34:50 12° 89° (E) 09:36:18 145.935
GONETS M04 24 Nov 09:34:16 09:43:00 66° 283° (WNW) 09:51:50
GOMX 1 24 Nov 09:41:03 09:45:11 64° 101° (ESE) 09:49:21 467.674
Oscar 11 24 Nov 09:44:46 09:48:46 35° 97° (E) 09:52:46 145.826/435.025
CUBEBUG 2 24 Nov 09:48:07 09:51:29 23° 94° (E) 09:54:54 437.445
SEEDS 24 Nov 09:50:24 09:54:41 78° 285° (WNW) 09:58:57 437.485
UWE-3 24 Nov 09:52:42 09:56:02 22° 94° (E) 09:59:24 435.000/436.395/437.385
POLYITAN 1 24 Nov 09:56:38 10:00:35 38° 70° (ENE) 10:04:32 437.675
HO-68 24 Nov 09:58:52 10:06:05 81° 289° (WNW) 10:13:14 435.675
BRITE-PL 24 Nov 09:59:24 10:03:29 58° 287° (WNW) 10:07:34 437.365/2234.400
QB50P2 24 Nov 09:59:26 10:03:26 41° 70° (ENE) 10:07:27 145.880/145.840
CINEMA 3 24 Nov 09:59:43 10:03:47 46° 99° (E) 10:07:55 145.822/145.860
DX 1 24 Nov 10:05:15 10:09:30 50° 100° (E) 10:13:42 434.975-435.025
DUCHIFAT 1 24 Nov 10:06:43 10:10:49 48° 72° (ENE) 10:14:55 145.980
TIGRISAT 24 Nov 10:11:07 10:15:22 76° 75° (ENE) 10:19:38 435.000
AAUSAT CUBESAT 2 24 Nov 10:11:29 10:15:40 61° 286° (WNW) 10:19:50 437.432
CANX-2 24 Nov 10:15:53 10:19:46 34° 291° (WNW) 10:23:39 2200.000
UNISAT 6 24 Nov 10:23:37 10:27:53 79° 257° (WSW) 10:32:11 437.425
COMPASS 1 24 Nov 10:25:33 10:29:30 39° 290° (WNW) 10:33:27 437.405
NANOSAT C BR1 24 Nov 10:25:37 10:29:52 78° 75° (ENE) 10:34:08 145.865
VELOX 1 24 Nov 10:26:23 10:30:12 27° 95° (E) 10:33:58 145.980
DELFI C3 24 Nov 10:26:54 10:31:04 87° 103° (ESE) 10:35:12 145.870
HUMSAT D 24 Nov 10:30:35 10:34:15 29° 96° (E) 10:37:55 437.325/437.525
ZACube-1 24 Nov 10:31:50 10:35:57 49° 100° (E) 10:40:06 437.345
50 SAT 24 Nov 10:33:07 10:36:32 26° 95° (E) 10:39:56 437.505
QB50P1 24 Nov 10:35:13 10:39:30 83° 256° (WSW) 10:43:47 145.935-145.965
DOVE 4 24 Nov 10:46:31 10:50:16 34° 290° (WNW) 10:54:05 437.250
AISAT 24 Nov 10:51:02 10:55:22 50° 100° (E) 10:59:39 437.250
CUTE 1.7 & AOD 2 24 Nov 10:51:38 10:54:30 18° 296° (WNW) 10:57:22 437.475
ANTELSAT 24 Nov 10:52:32 10:56:31 38° 262° (W) 11:00:32 437.575/2403.000
BUGSAT 1 24 Nov 10:56:29 11:00:41 58° 259° (W) 11:04:54 437.445
POPSAT HIP 1 24 Nov 11:00:01 11:04:06 45° 261° (W) 11:08:13 437.405
FUNcube-1 24 Nov 11:07:27 11:11:39 69° 286° (WNW) 11:15:53 145.935
UKube-1 24 Nov 11:08:02 11:12:03 37° 291° (WNW) 11:16:01 .
CUBEBUG 1 24 Nov 11:11:43 11:15:36 30° 96° (E) 11:19:26 437.445
SO-50 24 Nov 11:16:45 11:19:56 17° 33° (NNE) 11:23:08 436.795
GOMX 1 24 Nov 11:20:56 11:22:51 13° 299° (WNW) 11:24:46 467.674
Oscar 11 24 Nov 11:21:17 11:24:47 24° 294° (WNW) 11:28:17 145.826/435.025
CUBEBUG 2 24 Nov 11:24:29 11:28:17 34° 291° (WNW) 11:32:09 437.445
UWE-3 24 Nov 11:28:51 11:32:41 35° 290° (WNW) 11:36:35 435.000/436.395/437.385
POLYITAN 1 24 Nov 11:33:27 11:36:41 21° 267° (W) 11:39:55 437.675
QB50P2 24 Nov 11:36:26 11:39:32 20° 267° (W) 11:42:39 145.880/145.840
GONETS M04 24 Nov 11:37:08 11:41:53 15° 307° (NW) 11:46:40
CINEMA 3 24 Nov 11:37:54 11:40:42 18° 296° (WNW) 11:43:32 145.822/145.860
Oscar 19 24 Nov 11:41:42 11:44:55 17° 59° (ENE) 11:48:07 437.125/150
DX 1 24 Nov 11:42:26 11:45:23 18° 298° (WNW) 11:48:19 434.975-435.025
DUCHIFAT 1 24 Nov 11:44:12 11:46:58 17° 268° (W) 11:49:44 145.980
HO-68 24 Nov 11:48:04 11:52:44 19° 309° (NW) 11:57:24 435.675
TIGRISAT 24 Nov 11:51:54 11:52:40 10° 272° (W) 11:53:27 435.000
ESTCUBE 1 24 Nov 11:53:56 11:58:31 87° 104° (ESE) 12:03:03 437.505/2401.250
YUBILEINY 24 Nov 11:57:25 12:02:01 15° 53° (NE) 12:06:33 435.215
VELOX 1 24 Nov 12:02:53 12:06:47 31° 293° (WNW) 12:10:40 145.980
DELFI C3 24 Nov 12:05:05 12:05:42 10° 301° (WNW) 12:06:19 145.870
NANOSAT C BR1 24 Nov 12:05:38 12:06:18 10° 272° (W) 12:06:58 145.865
HUMSAT D 24 Nov 12:06:31 12:09:59 26° 293° (WNW) 12:13:29 437.325/437.525
50 SAT 24 Nov 12:08:20 12:11:50 28° 292° (WNW) 12:15:20 437.505
ZACube-1 24 Nov 12:09:15 12:11:59 17° 296° (WNW) 12:14:46 437.345
AISAT 24 Nov 12:28:35 12:31:39 19° 298° (WNW) 12:34:41 437.250
ITAMSAT 1 24 Nov 12:29:59 12:33:36 19° 60° (ENE) 12:37:14 435.822/435.867
TISAT 1 24 Nov 12:39:35 12:43:49 70° 102° (ESE) 12:47:59 437.305
SPROUT 24 Nov 12:43:19 12:47:37 68° 102° (ESE) 12:51:51 437.525
SWISSCUBE 24 Nov 12:45:57 12:48:37 15° 90° (E) 12:51:16 437.505
CUBEBUG 1 24 Nov 12:48:11 12:51:54 28° 293° (WNW) 12:55:36 437.445
AO-7 24 Nov 12:49:18 12:51:34 11° 35° (NE) 12:53:50 29.400- 29.500
AUBIESAT-1 24 Nov 12:51:04 12:54:23 18° 96° (E) 12:57:41 437.475
Gurwin Techsat 1B 24 Nov 12:51:13 12:54:40 18° 59° (ENE) 12:58:08 435.225
M-CUBED/EXP-1 PRIME 24 Nov 12:54:37 12:58:21 21° 97° (E) 13:02:03 437.505
SO-50 24 Nov 12:56:25 13:01:18 75° 53° (NE) 13:06:12 436.795
BEESAT 24 Nov 13:16:23 13:20:27 27° 95° (E) 13:24:29 436.000
CUSAT 1 24 Nov 13:17:35 13:20:08 35° 97° (E) 13:22:34 437.405
Oscar 19 24 Nov 13:18:34 13:23:40 73° 257° (WSW) 13:28:48 437.125/150
ESTCUBE 1 24 Nov 13:32:58 13:34:42 12° 302° (WNW) 13:36:25 437.505/2401.250
DANDE 24 Nov 13:34:58 13:37:46 54° 99° (E) 13:40:20 436.750
YUBILEINY 24 Nov 13:52:10 14:00:51 65° 77° (ENE) 14:09:27 435.215
ITAMSAT 1 24 Nov 14:07:25 14:12:36 65° 258° (WSW) 14:17:48 435.822/435.867
ITUPSAT 1 24 Nov 14:10:24 14:15:16 86° 104° (ESE) 14:20:04 437.325
KKS-1 24 Nov 14:13:24 14:16:47 21° 93° (E) 14:20:10 437.445
TISAT 1 24 Nov 14:17:11 14:19:06 13° 300° (WNW) 14:21:01 437.305
JAS-2 24 Nov 14:17:17 14:18:12 10° 43° (NE) 14:19:08 435.910
SPROUT 24 Nov 14:21:02 14:23:10 14° 299° (WNW) 14:25:18 437.525
SWISSCUBE 24 Nov 14:22:10 14:26:58 68° 287° (WNW) 14:31:42 437.505
AUBIESAT-1 24 Nov 14:24:52 14:29:44 63° 293° (WNW) 14:34:32 437.475
Gurwin Techsat 1B 24 Nov 14:28:45 14:34:03 74° 257° (WSW) 14:39:23 435.225
M-CUBED/EXP-1 PRIME 24 Nov 14:28:50 14:33:39 54° 294° (WNW) 14:38:25 437.505
HORYU 2 24 Nov 14:29:05 14:33:23 53° 72° (ENE) 14:37:44 437.375
AO-7 24 Nov 14:34:33 14:42:07 42° 59° (ENE) 14:49:44 29.400- 29.500
SO-50 24 Nov 14:38:21 14:41:18 16° 250° (WSW) 14:44:16 436.795
BEESAT 24 Nov 14:53:58 14:58:22 37° 292° (WNW) 15:02:45 436.000
VERMONT LUNAR 24 Nov 14:54:29 14:55:36 11° 150° (SSE) 14:56:42 437.305
STARS 24 Nov 15:12:22 15:16:43 58° 101° (E) 15:21:02 437.465
MaSat-1 24 Nov 15:43:45 15:46:38 43° 115° (ESE) 15:49:16 437.345
KKS-1 24 Nov 15:49:26 15:53:36 40° 290° (WNW) 15:57:45 437.445
YUBILEINY 24 Nov 15:49:52 15:56:59 30° 279° (W) 16:04:04 435.215
ITUPSAT 1 24 Nov 15:50:11 15:52:28 13° 302° (WNW) 15:54:45 437.325
JAS-2 24 Nov 15:54:09 16:01:11 42° 64° (ENE) 16:08:24 435.910
O/OREOS (USA 219) 24 Nov 15:55:55 16:00:18 51° 62° (ENE) 16:04:39 437.305
AUBIESAT-1 24 Nov 16:02:38 16:03:48 11° 310° (NW) 16:04:58 437.475
HORYU 2 24 Nov 16:07:38 16:10:24 16° 269° (W) 16:13:12 437.375
PHONESAT 2.4 24 Nov 16:12:21 16:15:17 22° 159° (SSE) 16:18:14 2401.200-2431.200
RS-15 24 Nov 16:17:54 16:28:17 52° 113° (ESE) 16:38:40 29.354- 29.394
AO-7 24 Nov 16:26:44 16:34:44 52° 259° (WSW) 16:42:50 29.400- 29.500
VERMONT LUNAR 24 Nov 16:30:11 16:33:24 30° 165° (SSE) 16:36:37 437.305
Cubesat XI-IV 24 Nov 16:34:25 16:38:19 21° 60° (ENE) 16:42:14 437.490
MOZHAYETS 4 24 Nov 16:41:37 16:45:23 24° 93° (E) 16:49:08
STARS 24 Nov 16:50:03 16:52:45 16° 299° (WNW) 16:55:27 437.465
CUTE-I 24 Nov 17:14:53 17:19:55 43° 68° (ENE) 17:24:57 437.470
MaSat-1 24 Nov 17:21:08 17:21:23 10° 309° (NW) 17:21:37 437.345
O/OREOS (USA 219) 24 Nov 17:36:21 17:39:17 17° 260° (W) 17:42:12 437.305
JAS-2 24 Nov 17:38:41 17:46:00 50° 263° (W) 17:53:38 435.910
GONETS M04 24 Nov 17:46:52 17:52:11 17° 55° (NE) 17:57:28
PHONESAT 2.4 24 Nov 17:50:07 17:53:38 40° 176° (S) 17:57:08 2401.200-2431.200
VERMONT LUNAR 24 Nov 18:08:05 18:11:31 40° 183° (S) 18:14:57 437.305
STRAND 1 24 Nov 18:09:41 18:12:33 15° 89° (E) 18:15:24 437.568
Cubesat XI-IV 24 Nov 18:12:38 18:17:57 63° 258° (WSW) 18:23:17 437.490
MOZHAYETS 4 24 Nov 18:18:23 18:22:44 39° 291° (WNW) 18:27:04
CUBESAT XI-V 24 Nov 18:18:36 18:21:51 18° 91° (E) 18:25:04 437.345
PRISM 24 Nov 18:29:54 18:34:06 57° 101° (E) 18:38:15 437.425
RS-15 24 Nov 18:29:58 18:40:37 55° 317° (NW) 18:51:25 29.354- 29.394
HO-68 24 Nov 18:44:05 18:49:14 22° 53° (NE) 18:54:23 435.675
CUTE-I 24 Nov 18:55:34 19:00:07 28° 265° (W) 19:04:42 437.470
SEEDS 24 Nov 19:12:46 19:13:43 11° 59° (ENE) 19:14:40 437.485
PCSat 24 Nov 19:14:12 19:17:44 18° 105° (ESE) 19:21:16 145.827
GOMX 1 24 Nov 19:16:49 19:18:15 11° 60° (ENE) 19:19:40 467.674
AIST 1 24 Nov 19:28:38 19:32:15 25° 88° (E) 19:35:53
PHONESAT 2.4 24 Nov 19:28:42 19:32:04 32° 193° (SSW) 19:35:25 2401.200-2431.200
AAUSAT CUBESAT 2 24 Nov 19:31:50 19:33:42 13° 61° (ENE) 19:35:36 437.432
BRITE-PL 24 Nov 19:34:37 19:38:31 24° 66° (ENE) 19:42:11 437.365/2234.400
CANX-2 24 Nov 19:35:52 19:39:10 23° 66° (ENE) 19:42:29 2200.000
GONETS M04 24 Nov 19:42:00 19:50:53 72° 79° (E) 19:59:38
COMPASS 1 24 Nov 19:44:44 19:47:43 19° 64° (ENE) 19:50:42 437.405
VERMONT LUNAR 24 Nov 19:46:36 19:49:35 24° 199° (SSW) 19:52:33 437.305
STRAND 1 24 Nov 19:47:11 19:52:18 73° 287° (WNW) 19:57:22 437.568
CUBESAT XI-V 24 Nov 19:55:04 19:59:36 51° 288° (WNW) 20:04:06 437.345
BEESAT 3 24 Nov 20:02:56 20:05:41 18° 111° (ESE) 20:08:28 437.485
PRISM 24 Nov 20:06:39 20:09:13 16° 298° (WNW) 20:11:46 437.425
CUTE 1.7 & AOD 2 24 Nov 20:09:52 20:13:53 46° 72° (ENE) 20:17:57 437.475
BEESAT 2 24 Nov 20:16:33 20:19:45 22° 113° (ESE) 20:22:59 435.950
DOVE 4 24 Nov 20:16:51 20:20:53 31° 69° (ENE) 20:24:44 437.250
HO-68 24 Nov 20:28:51 20:36:04 88° 253° (WSW) 20:43:19 435.675
UKube-1 24 Nov 20:29:34 20:33:11 26° 66° (ENE) 20:36:49 .
FUNcube-1 24 Nov 20:31:57 20:33:53 13° 61° (ENE) 20:35:50 145.935
Oscar 11 24 Nov 20:41:40 20:45:35 35° 69° (ENE) 20:49:32 145.826/435.025
AIST 2 24 Nov 20:44:05 20:47:20 22° 113° (ESE) 20:50:37 435.215
SEEDS 24 Nov 20:44:42 20:48:53 86° 257° (WSW) 20:53:08 437.485
RS-15 24 Nov 20:47:05 20:56:08 28° 349° (N) 21:05:22 29.354- 29.394
CUBEBUG 2 24 Nov 20:48:57 20:52:28 25° 67° (ENE) 20:55:56 437.445
GOMX 1 24 Nov 20:50:58 20:55:48 89° 76° (ENE) 21:00:19 467.674
UWE-3 24 Nov 20:52:30 20:55:54 24° 67° (ENE) 20:59:17 435.000/436.395/437.385
PCSat 24 Nov 20:55:07 21:00:31 73° 303° (WNW) 21:05:58 145.827
DX 1 24 Nov 21:02:46 21:07:04 57° 72° (ENE) 21:11:23 434.975-435.025
CINEMA 3 24 Nov 21:03:42 21:08:01 56° 73° (ENE) 21:12:11 145.822/145.860
AAUSAT CUBESAT 2 24 Nov 21:04:43 21:08:51 69° 258° (WSW) 21:13:02 437.432
AIST 1 24 Nov 21:05:52 21:09:47 31° 286° (WNW) 21:13:45
PHONESAT 2.4 24 Nov 21:08:24 21:10:14 13° 209° (SSW) 21:12:03 2401.200-2431.200
CANX-2 24 Nov 21:11:03 21:14:56 35° 263° (W) 21:18:51 2200.000
BRITE-PL 24 Nov 21:12:01 21:16:50 44° 261° (W) 21:21:19 437.365/2234.400
DELFI C3 24 Nov 21:17:35 21:21:38 72° 75° (ENE) 21:25:44 145.870
COMPASS 1 24 Nov 21:19:13 21:23:10 42° 262° (W) 21:27:10 437.405
ESTCUBE 1 24 Nov 21:21:46 21:23:53 13° 59° (ENE) 21:26:00 437.505/2401.250
50 SAT 24 Nov 21:24:31 21:27:42 23° 66° (ENE) 21:30:53 437.505
HUMSAT D 24 Nov 21:25:16 21:28:47 28° 68° (ENE) 21:32:19 437.325/437.525
VELOX 1 24 Nov 21:26:18 21:30:19 33° 68° (ENE) 21:34:19 145.980
STRAND 1 24 Nov 21:29:03 21:30:34 11° 306° (NW) 21:32:06 437.568
ZACube-1 24 Nov 21:30:10 21:34:15 50° 72° (ENE) 21:38:18 437.345
BEESAT 3 24 Nov 21:39:29 21:43:31 53° 309° (NW) 21:47:38 437.485
GONETS M04 24 Nov 21:39:55 21:46:51 27° 280° (W) 21:53:45
CUTE 1.7 & AOD 2 24 Nov 21:47:17 21:50:05 17° 269° (W) 21:52:53 437.475
AISAT 24 Nov 21:51:09 21:55:34 60° 72° (ENE) 21:59:59 437.250
BEESAT 2 24 Nov 21:53:49 21:57:47 43° 311° (NW) 22:01:49 435.950
DOVE 4 24 Nov 21:54:40 21:58:39 28° 264° (W) 22:02:28 437.250
TIGRISAT 24 Nov 22:02:25 22:04:39 14° 90° (E) 22:06:54 435.000
UKube-1 24 Nov 22:05:19 22:09:15 33° 263° (W) 22:13:12 .
FUNcube-1 24 Nov 22:05:33 22:09:45 67° 258° (WSW) 22:13:55 145.935
CUBEBUG 1 24 Nov 22:10:01 22:14:02 34° 68° (ENE) 22:18:03 437.445
NANOSAT C BR1 24 Nov 22:11:46 22:12:50 11° 88° (E) 22:13:54 145.865
UNISAT 6 24 Nov 22:14:30 22:17:38 19° 92° (E) 22:20:48 437.425
Oscar 11 24 Nov 22:18:26 22:21:51 23° 266° (W) 22:25:18 145.826/435.025
HO-68 24 Nov 22:20:16 22:24:43 17° 272° (W) 22:29:12 435.675
QB50P1 24 Nov 22:20:26 22:22:39 14° 90° (E) 22:24:52 145.935-145.965
AIST 2 24 Nov 22:21:36 22:25:41 46° 311° (NW) 22:29:51 435.215
CUBEBUG 2 24 Nov 22:25:18 22:29:06 31° 264° (W) 22:32:51 437.445
UWE-3 24 Nov 22:28:31 22:32:21 32° 263° (W) 22:36:08 435.000/436.395/437.385
GOMX 1 24 Nov 22:34:12 22:34:27 10° 272° (W) 22:34:42 467.674
BUGSAT 1 24 Nov 22:38:21 22:41:05 17° 92° (E) 22:43:48 437.445
DX 1 24 Nov 22:41:10 22:43:41 15° 269° (W) 22:46:12 434.975-435.025
PCSat 24 Nov 22:41:26 22:44:55 17° 325° (NW) 22:48:25 145.827
ANTELSAT 24 Nov 22:42:23 22:46:28 35° 97° (E) 22:50:37 437.575/2403.000
CINEMA 3 24 Nov 22:43:09 22:45:34 15° 269° (W) 22:47:57 145.822/145.860
POPSAT HIP 1 24 Nov 22:44:02 22:47:31 25° 95° (E) 22:50:59 437.405
ESTCUBE 1 24 Nov 22:55:34 23:00:07 80° 257° (WSW) 23:04:43 437.505/2401.250
DELFI C3 24 Nov 22:56:52 22:57:27 10° 272° (W) 22:58:02 145.870
50 SAT 24 Nov 22:59:15 23:02:53 32° 263° (W) 23:06:32 437.505
HUMSAT D 24 Nov 23:01:03 23:04:35 27° 265° (W) 23:08:07 437.325/437.525
VELOX 1 24 Nov 23:03:08 23:06:55 27° 265° (W) 23:10:44 145.980
ZACube-1 24 Nov 23:08:27 23:10:57 15° 269° (W) 23:13:26 437.345
